Terminal Aerodrome Forecast
Issued by NWS Houston/Galveston TX

Home | Current Version | Previous Version | Text Only | Print | Product List | Glossary On
Versions: 1 2 3 4 5 6 7 8 9 10 11 12 13 14 15 16 17 18 19 20 21 22 23 24 25 26 27 28 29 30 31 32 33 34 35 36 37 38 39 40 41 42 43 44 45 46 47 48
000
FTUS44 KHGX 230524
TAFHOU
TAF
KHOU 230524Z 2306/2406 17004KT P6SM FEW250
     FM231500 20006KT P6SM SCT025
     FM231800 18004KT P6SM SCT040
     FM232100 15010KT P6SM FEW050 SCT250
     FM240300 17004KT P6SM SCT250=

USA.gov is the U.S. government's official web portal to all federal, state and local government web resources and services.